Location: Oregon Star Party
(44.2935°N, 120.1332°W)
Time: 09:16:37
(UTC-07:00)

Amateur Radio Satellites - All Passes

Search period start: 01 October 2014 08:46
Search period end: 02 October 2014 08:46
Location: Oregon Star Party, 44.2935°N, 120.1332°W

Satellite Date Start Highest point End Downlink Frequencies (MHz)
Time Altitude Azimuth
RS-15 01 Oct 09:06:37 09:16:16 33° 25° (NNE) 09:26:09 29.354 - 29.394 USB, Beacon 29.352 USB
SO-67 01 Oct 09:18:18 09:20:21 15° 294° (WNW) 09:22:24 435.3500 MHz FM
Sapphire 01 Oct 09:23:16 09:28:13 38° 112° (ESE) 09:33:12 437.095 MHz 1200 baud AX-25 AFSK
Oscar 11 01 Oct 09:33:35 09:35:05 12° 89° (E) 09:36:35 145.825 FM, Beacon 2401.500 USB
HO-68 01 Oct 09:40:47 09:47:42 47° 100° (E) 09:54:34 435.675 MHz FM
PCSat 01 Oct 09:48:19 09:53:41 67° 117° (ESE) 09:59:04 145.825 MHz
UKube-1 01 Oct 10:01:28 10:05:16 28° 96° (E) 10:09:03 145.840 MHz, 145.915 MHz
ZACube-1 01 Oct 10:41:53 10:45:49 28° 94° (E) 10:49:39 437.345 MHz
Sapphire 01 Oct 11:06:41 11:11:39 36° 311° (NW) 11:16:40 437.095 MHz 1200 baud AX-25 AFSK
Oscar 11 01 Oct 11:07:26 11:11:45 69° 286° (WNW) 11:16:02 145.825 FM, Beacon 2401.500 USB
RS-15 01 Oct 11:19:26 11:30:36 80° 54° (NE) 11:42:12 29.354 - 29.394 USB, Beacon 29.352 USB
HO-68 01 Oct 11:28:46 11:35:15 38° 299° (WNW) 11:41:43 435.675 MHz FM
FUNcube-1 01 Oct 11:32:27 11:37:03 89° 284° (WNW) 11:41:31 145.950 - 145.970 MHz USB
PCSat 01 Oct 11:33:14 11:37:35 24° 317° (NW) 11:41:57 145.825 MHz
UKube-1 01 Oct 11:37:39 11:41:25 29° 293° (WNW) 11:45:11 145.840 MHz, 145.915 MHz
ZACube-1 01 Oct 12:18:10 12:22:13 31° 292° (WNW) 12:26:09 437.345 MHz
Oscar 19 01 Oct 12:19:10 12:22:34 18° 60° (ENE) 12:25:58 437.125 CW, 437.150 USB
ITAMSAT 1 01 Oct 12:34:24 12:35:35 11° 54° (NE) 12:36:46 435.822 SSB
Uribyol 2 01 Oct 12:34:34 12:36:18 12° 55° (NE) 12:38:02 436.500 FM
Oscar 16 01 Oct 12:58:35 13:03:22 39° 68° (ENE) 13:08:10 437.025 USB, Beacon 2401.1428
AO-Echo 01 Oct 13:06:12 13:09:40 21° 63° (ENE) 13:13:10 ?
JAS-1B 01 Oct 13:09:29 13:16:06 38° 66° (ENE) 13:21:50 435.800 - 435.900 CW/SSB
AO-27 01 Oct 13:09:43 13:13:40 22° 62° (ENE) 13:17:37 436.795 MHz FM
FUNcube-1 01 Oct 13:11:23 13:12:40 11° 302° (WNW) 13:13:56 145.950 - 145.970 MHz USB
RS-15 01 Oct 13:32:46 13:41:54 31° 255° (WSW) 13:51:21 29.354 - 29.394 USB, Beacon 29.352 USB
Gurwin Techsat 1B 01 Oct 13:37:09 13:40:55 20° 61° (ENE) 13:44:42 435.225 FM
Oscar 19 01 Oct 13:56:11 14:01:22 69° 258° (WSW) 14:06:34 437.125 CW, 437.150 USB
MaSat-1 01 Oct 14:04:00 14:06:03 15° 46° (NE) 14:07:57 437.345 MHz
TMSAT-1 01 Oct 14:04:52 14:09:09 26° 63° (ENE) 14:13:26 436.925 FM
ITAMSAT 1 01 Oct 14:08:59 14:14:07 70° 73° (ENE) 14:19:19 435.822 SSB
Uribyol 2 01 Oct 14:09:42 14:14:52 76° 74° (ENE) 14:20:06 436.500 FM
Saudisat 1A 01 Oct 14:12:11 14:16:27 52° 120° (ESE) 14:20:45 436.775 MHz
Oscar 10/S400 01 Oct 14:37:09 14:52:24 25° 147° (SSE) 15:09:24 145.825 - 145.975 CW/USB, Beacon 145.810 USB
Oscar 16 01 Oct 14:38:20 14:42:47 29° 265° (W) 14:47:16 437.025 USB, Beacon 2401.1428
AO-Echo 01 Oct 14:43:38 14:48:08 46° 261° (W) 14:52:43 ?
AO-7 01 Oct 14:46:15 14:53:05 30° 54° (NE) 14:59:55 29.400 - 29.500 MHz
AO-27 01 Oct 14:47:46 14:52:49 53° 260° (W) 14:57:54 436.795 MHz FM
JAS-1B 01 Oct 14:59:39 15:06:43 41° 261° (W) 15:12:47 435.800 - 435.900 CW/SSB
Gurwin Techsat 1B 01 Oct 15:15:10 15:20:25 62° 259° (WSW) 15:25:42 435.225 FM
MaSat-1 01 Oct 15:39:38 15:42:47 37° 250° (WSW) 15:45:32 437.345 MHz
TMSAT-1 01 Oct 15:43:44 15:48:48 46° 261° (W) 15:53:55 436.925 FM
ITAMSAT 1 01 Oct 15:51:08 15:54:09 15° 270° (W) 15:57:11 435.822 SSB
Uribyol 2 01 Oct 15:52:11 15:54:56 14° 271° (W) 15:57:42 436.500 FM
Saudisat 1A 01 Oct 15:52:44 15:56:18 23° 319° (NW) 15:59:53 436.775 MHz
Uosat F 01 Oct 16:04:58 16:09:48 53° 70° (ENE) 16:14:41 435.120 FM
Sapphire 01 Oct 16:27:43 16:29:37 12° 29° (NNE) 16:31:31 437.095 MHz 1200 baud AX-25 AFSK
Hamsat 01 Oct 16:35:16 16:36:43 12° 60° (ENE) 16:38:10 145.90 MHz
AO-7 01 Oct 16:36:56 16:45:13 72° 254° (WSW) 16:53:31 29.400 - 29.500 MHz
PCSat 01 Oct 16:52:22 16:55:48 17° 36° (NE) 16:59:12 145.825 MHz
KITSAT 1 01 Oct 16:53:29 17:01:07 48° 112° (ESE) 17:08:46 435.175 FM
JAS-2 01 Oct 16:55:48 17:00:13 29° 63° (ENE) 17:04:52 435.800 - 435.900 CW/SSB, 435.910 FM
Uosat F 01 Oct 17:45:19 17:48:54 20° 268° (W) 17:52:31 435.120 FM
OPAL 01 Oct 17:52:01 17:57:02 55° 103° (ESE) 18:01:57 ?
Hamsat 01 Oct 18:07:43 18:12:03 80° 258° (WSW) 18:16:23 145.90 MHz
Sapphire 01 Oct 18:09:16 18:14:30 45° 52° (NE) 18:19:41 437.095 MHz 1200 baud AX-25 AFSK
SO-67 01 Oct 18:19:41 18:21:52 16° 67° (ENE) 18:24:03 435.3500 MHz FM
PCSat 01 Oct 18:34:43 18:40:10 75° 57° (ENE) 18:45:35 145.825 MHz
AO-7 01 Oct 18:35:27 18:39:25 14° 274° (W) 18:43:24 29.400 - 29.500 MHz
JAS-2 01 Oct 18:40:25 18:45:12 38° 264° (W) 18:50:16 435.800 - 435.900 CW/SSB, 435.910 FM
KITSAT 1 01 Oct 18:48:51 18:56:34 47° 314° (NW) 19:04:20 435.175 FM
STRAND 1 01 Oct 18:55:13 18:59:07 21° 93° (E) 19:03:00 ?
AO-40 01 Oct 19:13:33 00:51:15 38° 183° (S) 06:43:06 Beacon 2401.320
SO-50 01 Oct 19:16:29 19:20:45 46° 118° (ESE) 19:25:10 436.795 FM
OPAL 01 Oct 19:31:43 19:35:32 22° 301° (WNW) 19:39:18 ?
SO-67 01 Oct 19:51:31 19:54:38 32° 263° (W) 19:57:46 435.3500 MHz FM
Sapphire 01 Oct 19:53:04 19:57:43 29° 250° (WSW) 20:02:20 437.095 MHz 1200 baud AX-25 AFSK
HO-68 01 Oct 20:11:02 20:17:38 42° 63° (ENE) 20:24:16 435.675 MHz FM
PCSat 01 Oct 20:19:35 20:22:56 17° 255° (WSW) 20:26:17 145.825 MHz
Oscar 11 01 Oct 20:30:29 20:32:25 13° 61° (ENE) 20:34:22 145.825 FM, Beacon 2401.500 USB
STRAND 1 01 Oct 20:33:36 20:38:35 51° 290° (WNW) 20:43:33 ?
KITSAT 1 01 Oct 20:48:57 20:54:19 19° 341° (NNW) 20:59:40 435.175 FM
FUNcube-1 01 Oct 20:57:23 20:58:48 11° 58° (ENE) 21:00:13 145.950 - 145.970 MHz USB
SO-50 01 Oct 20:57:40 21:01:31 27° 318° (NW) 21:05:29 436.795 FM
UKube-1 01 Oct 20:58:31 21:02:20 31° 67° (ENE) 21:06:10 145.840 MHz, 145.915 MHz
Saudisat 1A 01 Oct 20:59:05 21:01:20 14° 32° (NNE) 21:03:34 436.775 MHz
UOSAT-12 01 Oct 21:19:48 21:24:24 69° 122° (ESE) 21:29:06 437.025 FM, 437.400 FM
ZACube-1 01 Oct 21:39:48 21:43:42 29° 67° (ENE) 21:47:40 437.345 MHz
HO-68 01 Oct 21:58:41 22:05:20 41° 262° (W) 22:12:03 435.675 MHz FM
Oscar 11 01 Oct 22:03:40 22:08:01 73° 258° (WSW) 22:12:24 145.825 FM, Beacon 2401.500 USB
ISS 01 Oct 22:23:38 22:26:53 53° 144° (SE) 22:30:09 145.800 FM
FUNcube-1 01 Oct 22:29:52 22:34:25 88° 76° (ENE) 22:39:04 145.950 - 145.970 MHz USB
UKube-1 01 Oct 22:34:53 22:38:31 26° 264° (W) 22:42:12 145.840 MHz, 145.915 MHz
Saudisat 1A 01 Oct 22:37:20 22:41:45 67° 53° (NE) 22:46:08 436.775 MHz
KITSAT 1 01 Oct 22:48:48 22:53:33 16° 12° (NNE) 22:58:16 435.175 FM
UOSAT-12 01 Oct 23:01:25 23:05:01 22° 322° (NW) 23:08:40 437.025 FM, 437.400 FM
ZACube-1 01 Oct 23:15:56 23:20:00 32° 264° (W) 23:24:10 437.345 MHz
ISS 02 Oct 00:00:39 00:03:43 33° 342° (NNW) 00:06:47 145.800 FM
Saudisat 1A 02 Oct 00:18:20 00:20:48 15° 250° (WSW) 00:23:15 436.775 MHz
KITSAT 1 02 Oct 00:44:33 00:51:50 35° 40° (NE) 00:59:04 435.175 FM
Oscar 16 02 Oct 01:11:00 01:12:35 11° 87° (E) 01:14:09 437.025 USB, Beacon 2401.1428
ISS 02 Oct 01:38:22 01:41:04 22° 2° (N) 01:43:46 145.800 FM
RS-15 02 Oct 01:45:29 01:55:30 42° 109° (ESE) 02:05:23 29.354 - 29.394 USB, Beacon 29.352 USB
Oscar 19 02 Oct 02:06:25 02:11:12 37° 97° (E) 02:15:55 437.125 CW, 437.150 USB
SO-50 02 Oct 02:06:53 02:09:40 15° 32° (NNE) 02:12:27 436.795 FM
ITAMSAT 1 02 Oct 02:21:00 02:25:02 22° 93° (E) 02:29:03 435.822 SSB
Uribyol 2 02 Oct 02:21:31 02:25:42 24° 93° (E) 02:29:52 436.500 FM
KITSAT 1 02 Oct 02:39:50 02:47:52 70° 242° (WSW) 02:55:51 435.175 FM
JAS-1B 02 Oct 02:41:30 02:46:58 46° 100° (E) 02:52:52 435.800 - 435.900 CW/SSB
Oscar 16 02 Oct 02:47:28 02:52:40 90° 104° (ESE) 02:57:48 437.025 USB, Beacon 2401.1428
AO-Echo 02 Oct 02:48:29 02:53:22 48° 99° (E) 02:58:21 ?
AO-27 02 Oct 02:59:02 03:04:07 49° 100° (E) 03:09:11 436.795 MHz FM
ISS 02 Oct 03:15:10 03:18:21 41° 22° (NNE) 03:21:32 145.800 FM
Gurwin Techsat 1B 02 Oct 03:29:46 03:34:54 47° 99° (E) 03:40:00 435.225 FM
OPAL 02 Oct 03:31:48 03:35:15 18° 57° (ENE) 03:38:43 ?
Oscar 19 02 Oct 03:46:00 03:50:25 30° 295° (WNW) 03:54:48 437.125 CW, 437.150 USB
SO-50 02 Oct 03:46:18 03:51:07 67° 53° (NE) 03:55:58 436.795 FM
Oscar 10/S400 02 Oct 03:46:39 04:29:44 14° 251° (WSW) 05:40:29 145.825 - 145.975 CW/USB, Beacon 145.810 USB
RS-15 02 Oct 03:56:32 04:07:23 62° 313° (NW) 04:18:16 29.354 - 29.394 USB, Beacon 29.352 USB
TMSAT-1 02 Oct 03:57:38 04:02:55 63° 101° (ESE) 04:08:10 436.925 FM
ITAMSAT 1 02 Oct 03:59:45 04:04:48 50° 290° (WNW) 04:09:50 435.822 SSB
Uribyol 2 02 Oct 04:00:23 04:05:24 47° 291° (WNW) 04:10:22 436.500 FM
UOSAT-12 02 Oct 04:08:44 04:11:59 18° 35° (NE) 04:15:12 437.025 FM, 437.400 FM
Uosat F 02 Oct 04:12:37 04:15:15 14° 90° (E) 04:17:53 435.120 FM
AO-Echo 02 Oct 04:27:56 04:31:51 23° 296° (WNW) 04:35:51 ?
Oscar 16 02 Oct 04:28:46 04:31:15 14° 303° (WNW) 04:33:45 437.025 USB, Beacon 2401.1428
JAS-1B 02 Oct 04:32:50 04:37:30 27° 297° (WNW) 04:42:22 435.800 - 435.900 CW/SSB
AO-7 02 Oct 04:36:57 04:44:26 36° 97° (E) 04:51:52 29.400 - 29.500 MHz
KITSAT 1 02 Oct 04:38:09 04:41:48 14° 262° (W) 04:45:26 435.175 FM
AO-27 02 Oct 04:39:12 04:43:20 24° 297° (WNW) 04:47:26 436.795 MHz FM
ISS 02 Oct 04:51:58 04:55:01 34° 220° (SW) 04:58:03 145.800 FM
OPAL 02 Oct 05:08:23 05:13:35 71° 255° (WSW) 05:18:49 ?
Gurwin Techsat 1B 02 Oct 05:10:18 05:14:36 25° 297° (WNW) 05:18:52 435.225 FM
MaSat-1 02 Oct 05:23:00 05:27:38 46° 112° (ESE) 05:32:02 437.345 MHz
SO-50 02 Oct 05:28:04 05:31:12 17° 250° (WSW) 05:34:21 436.795 FM
TMSAT-1 02 Oct 05:38:36 05:42:21 20° 299° (WNW) 05:46:06 436.925 FM
JAS-2 02 Oct 05:45:37 05:51:22 29° 94° (E) 05:57:35 435.800 - 435.900 CW/SSB, 435.910 FM
UOSAT-12 02 Oct 05:48:03 05:52:49 90° 57° (ENE) 05:57:29 437.025 FM, 437.400 FM
Uosat F 02 Oct 05:49:32 05:54:35 74° 287° (WNW) 05:59:36 435.120 FM
Hamsat 02 Oct 05:53:07 05:55:43 16° 91° (E) 05:58:18 145.90 MHz
STRAND 1 02 Oct 06:12:32 06:17:09 36° 67° (ENE) 06:21:48 ?
RS-15 02 Oct 06:13:27 06:22:30 28° 343° (NNW) 06:31:40 29.354 - 29.394 USB, Beacon 29.352 USB
AO-7 02 Oct 06:29:29 06:37:31 56° 296° (WNW) 06:45:32 29.400 - 29.500 MHz
MaSat-1 02 Oct 07:00:19 07:04:15 25° 308° (NW) 07:07:59 437.345 MHz
SO-67 02 Oct 07:14:10 07:16:10 15° 92° (E) 07:18:10 435.3500 MHz FM
Hamsat 02 Oct 07:27:54 07:31:57 47° 288° (WNW) 07:35:56 145.90 MHz
JAS-2 02 Oct 07:30:08 07:36:39 60° 289° (WNW) 07:43:55 435.800 - 435.900 CW/SSB, 435.910 FM
UOSAT-12 02 Oct 07:30:37 07:32:13 12° 253° (WSW) 07:33:47 437.025 FM, 437.400 FM
Uosat F 02 Oct 07:31:14 07:32:29 11° 305° (NW) 07:33:43 435.120 FM
STRAND 1 02 Oct 07:51:57 07:56:22 30° 265° (W) 08:00:51 ?
AO-7 02 Oct 08:24:27 08:28:32 15° 318° (NW) 08:32:38 29.400 - 29.500 MHz
